Temp
79 78 78 77 77 76 75 75 75 75 75 75 76 75 75 76 76 76 76 75 75 76 76 75 75 76 75 75 74 74 75 75 75 75 75 74 74 74 74 74 74 73 73 73 73 73 73 73 73 73 74 74 75 73 76 79 78 76 75 74 73 73
78 78 78 78 77 77 75 76 76 75 76 76 76 75 76 76 76 75 76 75 75 75 73 74 75 77 75 75 75 75 75 75 74 74 74 74 74 74 74 74 74 74 74 73 73 72 72 73 73 74 73 74 73 74 77 78 77 76 75 73 72 72
79 79 79 79 78 77 76 77 77 76 76 76 76 76 77 78 77 77 77 77 74 73 74 73 72 75 75 75 75 75 75 75 75 75 74 74 74 74 73 73 74 74 73 73 73 74 74 74 74 75 74 73 72 76 79 79 77 76 75 74 72 74
80 79 79 78 78 77 77 77 77 77 77 76 76 78 78 78 78 77 77 74 72 73 72 72 74 75 75 74 74 74 74 75 75 75 74 74 73 73 73 73 73 73 72 74 74 75 77 76 75 74 74 74 76 79 79 79 78 76 75 75 74 74
80 79 78 75 74 77 77 77 78 78 77 77 77 77 77 75 74 75 74 73 73 72 72 71 71 71 72 73 73 73 73 74 74 74 73 73 72 75 72 74 72 72 74 74 76 76 75 75 74 74 75 76 79 79 80 78 77 76 74 73 72 73
79 75 74 72 72 76 78 76 77 77 77 77 76 72 72 73 73 72 72 71 71 70 70 70 70 69 70 72 72 72 73 73 74 73 73 73 73 74 74 76 76 74 75 76 75 76 74 71 70 70 71 76 77 79 79 79 77 74 73 72 72 73
72 72 71 71 71 72 72 73 75 75 74 72 72 71 71 72 71 71 71 71 70 69 69 69 69 69 69 72 72 73 73 74 74 74 74 74 74 74 74 75 75 75 76 77 77 76 72 71 70 70 70 75 79 79 78 79 76 75 73 72 72 73
69 71 71 70 70 71 72 74 74 74 72 72 71 70 70 70 71 69 70 70 71 70 69 69 70 69 70 70 71 72 74 75 75 74 75 76 76 75 75 75 76 78 79 79 78 74 72 71 70 69 71 72 72 72 75 78 77 75 74 72 72 72
70 71 69 69 70 71 72 73 71 72 71 73 70 71 70 70 70 70 70 70 72 70 70 70 70 70 70 70 70 70 71 74 75 76 76 75 77 75 75 76 75 77 76 77 74 72 72 71 69 69 69 68 69 72 72 75 76 76 74 72 72 71
71 70 69 69 69 70 71 70 71 72 72 70 71 72 70 69 70 70 70 71 72 71 70 69 69 70 70 69 69 69 69 70 74 75 75 74 75 75 74 74 76 77 80 78 73 73 72 72 73 72 71 70 69 70 72 72 77 75 74 73 71 71
70 71 69 69 68 68 70 70 71 72 73 72 72 73 70 70 70 71 72 72 72 71 70 70 70 69 69 69 69 69 70 72 74 76 75 75 76 75 76 75 77 76 77 79 74 72 73 71 70 70 73 73 71 69 73 73 75 75 74 72 72 71
70 70 70 68 68 67 69 70 71 71 70 70 71 71 71 71 70 71 72 72 71 71 71 70 70 69 69 68 69 71 74 74 74 75 76 77 76 75 76 77 79 78 77 75 73 72 70 69 72 71 76 71 69 68 71 72 73 74 73 73 73 72
72 72 70 68 68 67 69 70 71 71 69 69 70 70 70 70 70 71 72 72 72 72 71 69 69 69 69 68 70 72 73 74 75 74 73 76 76 75 75 74 73 75 74 73 70 69 72 69 69 71 72 71 70 68 69 71 74 74 73 73 73 72
72 71 71 69 68 68 68 69 72 70 68 68 68 67 68 69 69 70 71 71 71 72 70 69 70 68 69 70 70 71 73 73 74 74 75 73 72 74 73 73 74 75 72 71 70 70 69 66 70 69 69 69 67 67 68 70 73 72 71 70 70 71
72 71 70 70 69 69 69 71 71 70 69 69 68 67 68 69 69 70 70 69 70 70 70 70 71 70 70 71 71 71 72 72 73 74 74 74 72 73 73 74 73 71 69 68 69 69 71 70 70 68 67 66 66 67 66 68 72 72 72 71 70 69
72 71 70 71 72 71 72 71 70 70 67 68 68 68 68 69 69 69 69 69 70 70 70 70 72 73 71 72 72 71 71 71 73 73 73 73 72 70 72 71 71 71 68 68 68 69 70 70 68 66 67 66 66 66 66 67 70 71 71 71 70 69
71 72 72 71 73 73 72 71 70 68 68 68 68 68 68 69 69 69 69 69 69 69 69 69 68 71 72 72 72 71 72 73 73 72 71 70 72 71 68 69 69 71 70 67 68 69 66 68 66 66 65 66 67 66 66 67 69 69 70 70 70 70
72 73 73 73 72 72 72 71 70 70 68 68 68 69 68 68 68 68 68 68 69 68 68 69 69 69 66 67 71 72 73 73 73 72 70 69 70 71 69 68 67 69 70 69 69 68 65 66 67 66 66 65 66 67 67 67 69 69 68 68 68 68
72 72 73 74 72 72 71 71 71 70 67 67 68 68 68 67 67 68 68 69 69 68 68 68 69 68 67 66 69 73 73 73 73 70 69 70 68 67 68 68 68 67 69 70 69 65 65 66 67 66 66 66 68 68 67 67 68 67 67 68 68 68
72 73 74 73 72 71 71 70 69 70 68 67 67 67 67 67 67 68 69 68 69 68 68 68 68 67 66 68 71 72 72 74 72 70 69 69 67 66 67 66 67 68 67 69 69 65 66 65 65 65 65 66 67 67 67 66 66 66 67 67 67 66
72 73 73 72 71 72 71 70 70 70 67 67 68 68 67 66 67 67 70 69 68 68 68 69 69 69 70 70 70 70 70 71 70 69 69 69 67 67 67 66 66 67 67 67 66 66 66 66 64 62 64 65 65 67 67 68 67 66 66 66 66 66
72 72 73 73 72 71 72 72 70 70 70 68 70 69 67 66 66 68 68 69 68 68 68 68 68 69 71 71 70 70 70 69 68 67 67 69 69 66 67 67 68 65 68 67 65 66 66 66 63 62 61 60 62 64 66 66 67 67 65 68 68 67
73 72 73 74 73 72 73 74 72 70 71 71 75 73 71 70 68 69 69 69 68 67 68 67 69 70 72 72 71 70 69 68 68 68 67 66 66 65 66 66 67 66 64 66 65 65 65 67 64 65 64 61 58 58 61 63 65 66 67 67 68 68
72 72 73 74 73 74 74 74 74 73 73 72 69 70 70 70 69 69 68 69 68 70 70 70 71 73 73 72 71 70 70 69 69 70 68 66 66 64 65 66 66 67 66 63 64 64 67 67 67 65 60 60 60 60 56 58 62 64 66 68 66 66
72 72 74 73 73 73 72 72 72 72 71 69 70 69 68 67 68 68 68 67 68 71 71 71 72 74 73 71 70 70 70 70 70 70 71 69 66 65 65 65 66 67 66 65 64 64 65 66 67 67 64 62 59 58 58 60 63 62 65 65 65 65
73 73 73 74 73 72 71 70 69 68 67 67 66 66 65 65 66 66 66 68 70 71 72 71 71 72 73 71 70 70 70 71 70 70 70 70 69 66 65 65 66 66 66 67 65 65 62 65 67 68 67 66 64 61 60 63 63 56 64 66 64 64
74 73 74 74 73 72 72 71 70 70 69 68 66 67 69 69 67 68 68 67 68 70 72 71 71 72 71 72 71 71 71 71 72 71 72 71 69 66 66 67 66 67 67 68 67 64 63 64 66 66 66 67 67 66 67 64 59 61 57 62 66 66
73 72 73 73 73 73 72 71 71 71 70 70 69 68 68 68 69 69 68 68 68 69 72 73 72 73 73 73 72 72 72 72 72 74 73 72 70 70 69 70 69 71 69 67 64 64 65 65 63 62 65 66 67 69 68 67 68 64 61 58 61 67
72 72 72 73 73 74 73 72 71 72 70 71 71 70 70 69 68 68 67 68 68 69 71 73 75 74 73 74 73 73 73 73 71 72 74 74 71 71 71 68 68 67 67 67 66 67 66 65 65 63 64 63 65 64 66 66 65 66 62 60 60 62
72 72 72 73 73 73 73 72 71 71 70 69 70 70 69 67 66 66 66 65 66 65 68 71 71 74 74 74 74 74 73 73 72 73 74 71 71 70 69 69 69 69 69 66 66 67 66 65 65 66 66 64 62 62 62 63 64 62 61 62 61 62
72 73 73 72 73 72 73 72 72 72 71 70 70 69 67 66 66 64 65 65 65 65 67 70 70 72 71 73 74 74 73 74 73 73 73 71 69 70 69 67 67 68 68 68 67 65 65 65 65 65 66 65 63 63 62 61 61 61 61 58 59 63
72 73 72 72 72 72 73 73 73 72 72 70 70 69 65 65 66 65 66 65 65 65 68 71 71 72 72 72 72 71 73 73 73 73 72 70 68 68 70 68 66 66 68 68 66 65 65 64 65 65 66 65 64 65 64 63 63 63 61 61 62 63
72 73 73 73 72 72 72 73 72 72 71 70 70 70 68 68 68 66 66 66 66 66 70 70 70 71 71 73 72 71 70 69 70 70 71 70 68 68 69 68 66 67 67 67 66 65 65 65 65 65 65 66 66 66 65 64 65 64 63 63 64 63
72 72 73 72 72 72 72 73 72 71 70 69 68 68 70 72 71 70 69 69 71 70 70 71 71 71 72 74 73 73 71 70 70 70 71 71 71 71 69 69 69 68 67 67 66 65 65 65 65 66 67 65 66 66 64 64 65 65 64 63 62 64
71 72 72 72 72 72 72 73 72 72 70 70 69 69 71 73 73 72 73 73 72 72 71 72 72 72 74 73 73 73 74 73 72 70 72 71 70 69 68 68 67 68 66 66 67 65 65 65 66 66 67 66 67 66 65 64 66 67 68 66 66 66
72 72 72 72 72 72 73 73 73 71 71 71 70 71 72 73 73 73 73 73 72 72 73 72 73 73 73 74 73 73 74 73 73 72 72 72 70 68 69 66 67 67 66 69 66 65 64 65 65 65 66 66 66 66 66 65 67 68 69 69 68 67
73 73 73 73 72 73 73 72 72 72 72 72 71 72 72 73 73 74 74 73 73 73 73 72 73 74 73 74 73 73 73 73 72 73 71 71 70 68 68 66 68 67 67 66 64 65 65 64 64 64 64 65 65 66 68 68 69 69 69 68 69 68
MSLP
1012.16 1012.36 1012.60 1012.84 1013.12 1013.48 1013.76 1014.00 1014.24 1014.44 1014.68 1014.88 1015.08 1015.20 1015.36 1015.56 1015.72 1015.84 1015.92 1016.08 1016.28 1016.36 1016.48 1016.64 1016.76 1016.88 1017.04 1017.16 1017.24 1017.40 1017.56 1017.68 1017.80 1017.88 1018.00 1018.24 1018.44 1018.52 1018.64 1018.68 1018.68 1018.72 1018.72 1018.76 1018.68 1018.60 1018.64 1018.60 1018.56 1018.48 1018.36 1018.32 1018.24 1018.24 1018.08 1018.16 1018.64 1019.08 1019.44 1019.72 1019.96 1020.12
1012.00 1012.24 1012.44 1012.76 1013.08 1013.44 1013.84 1014.08 1014.32 1014.60 1014.80 1015.00 1015.12 1015.28 1015.48 1015.64 1015.76 1015.88 1016.00 1016.16 1016.36 1016.48 1016.68 1016.84 1016.80 1016.92 1017.12 1017.24 1017.40 1017.52 1017.64 1017.80 1017.92 1018.04 1018.16 1018.32 1018.48 1018.64 1018.72 1018.80 1018.80 1018.80 1018.80 1018.80 1018.72 1018.68 1018.72 1018.68 1018.60 1018.52 1018.44 1018.36 1018.36 1018.20 1017.96 1018.32 1018.72 1019.24 1019.68 1020.00 1020.12 1020.28
1011.84 1012.12 1012.40 1012.72 1013.04 1013.44 1013.84 1014.08 1014.36 1014.56 1014.80 1015.00 1015.12 1015.28 1015.48 1015.60 1015.80 1015.84 1016.00 1016.20 1016.48 1016.64 1016.84 1017.12 1017.04 1017.08 1017.12 1017.32 1017.48 1017.64 1017.76 1017.88 1018.04 1018.20 1018.28 1018.40 1018.56 1018.72 1018.84 1018.88 1018.84 1018.88 1018.92 1018.84 1018.72 1018.64 1018.64 1018.60 1018.56 1018.48 1018.44 1018.40 1018.32 1018.16 1018.00 1018.36 1018.76 1019.20 1019.68 1020.00 1020.24 1020.36
1011.76 1012.08 1012.40 1012.76 1013.12 1013.52 1013.84 1014.08 1014.36 1014.60 1014.80 1014.96 1015.08 1015.24 1015.40 1015.52 1015.60 1015.76 1015.96 1016.24 1016.52 1016.72 1016.92 1017.08 1017.16 1017.32 1017.32 1017.44 1017.60 1017.76 1017.88 1018.04 1018.16 1018.32 1018.52 1018.56 1018.60 1018.72 1018.84 1018.92 1018.88 1018.92 1019.04 1018.92 1018.72 1018.56 1018.56 1018.52 1018.48 1018.44 1018.44 1018.40 1018.20 1017.92 1018.08 1018.40 1018.92 1019.36 1019.60 1019.92 1020.28 1020.44
1011.68 1012.04 1012.44 1013.08 1013.52 1013.64 1013.92 1014.20 1014.44 1014.68 1014.84 1014.96 1015.08 1015.12 1015.32 1015.60 1015.76 1015.84 1016.08 1016.36 1016.48 1016.68 1016.96 1017.08 1017.12 1017.28 1017.40 1017.48 1017.68 1017.92 1018.08 1018.16 1018.32 1018.52 1018.60 1018.64 1018.68 1018.72 1018.84 1018.88 1018.96 1019.00 1018.92 1018.84 1018.60 1018.44 1018.52 1018.60 1018.56 1018.60 1018.56 1018.28 1018.04 1018.12 1018.24 1018.64 1019.00 1019.40 1019.80 1020.04 1020.40 1020.52
1012.12 1012.48 1012.96 1013.72 1013.76 1013.68 1013.88 1014.40 1014.64 1014.76 1014.88 1014.92 1015.08 1015.44 1015.64 1015.72 1015.88 1016.08 1016.16 1016.36 1016.56 1016.84 1017.08 1017.20 1017.32 1017.40 1017.48 1017.52 1017.72 1018.00 1018.16 1018.16 1018.36 1018.56 1018.60 1018.64 1018.68 1018.68 1018.80 1018.64 1018.68 1018.88 1018.72 1018.60 1018.52 1018.48 1018.56 1018.72 1018.80 1018.80 1018.72 1018.36 1018.20 1018.24 1018.44 1018.76 1019.16 1019.68 1020.04 1020.28 1020.48 1020.64
1013.80 1014.00 1014.44 1014.80 1014.56 1013.92 1014.28 1014.60 1014.76 1014.88 1015.08 1015.32 1015.44 1015.76 1015.84 1015.88 1016.04 1016.24 1016.32 1016.36 1016.60 1016.92 1017.16 1017.28 1017.44 1017.56 1017.60 1017.56 1017.68 1017.88 1018.04 1018.12 1018.36 1018.48 1018.52 1018.60 1018.64 1018.64 1018.72 1018.56 1018.52 1018.56 1018.48 1018.44 1018.52 1018.48 1018.68 1018.80 1018.88 1019.00 1018.92 1018.76 1018.32 1018.60 1018.64 1018.92 1019.36 1019.76 1020.12 1020.40 1020.64 1020.76
1013.84 1014.72 1015.08 1015.12 1014.84 1014.68 1014.76 1014.96 1015.08 1015.20 1015.32 1015.40 1015.72 1016.00 1016.04 1015.88 1016.00 1016.44 1016.48 1016.48 1016.48 1016.80 1017.12 1017.32 1017.40 1017.48 1017.48 1017.48 1017.64 1017.72 1017.76 1017.92 1018.12 1018.28 1018.32 1018.28 1018.48 1018.64 1018.68 1018.48 1018.44 1018.36 1018.32 1018.32 1018.56 1018.64 1018.76 1018.92 1019.00 1019.04 1019.32 1019.08 1019.12 1019.00 1018.96 1019.00 1019.28 1019.76 1020.16 1020.52 1020.76 1020.88
1013.76 1014.28 1014.68 1014.76 1014.64 1014.96 1015.08 1015.32 1015.72 1015.56 1015.72 1015.64 1016.00 1016.36 1016.24 1016.04 1016.00 1016.44 1016.52 1016.64 1016.64 1016.92 1017.16 1017.20 1017.32 1017.32 1017.28 1017.48 1017.56 1017.68 1017.84 1017.88 1017.96 1018.16 1018.16 1018.16 1018.12 1018.48 1018.52 1018.32 1018.28 1018.24 1018.24 1018.36 1018.60 1018.88 1019.00 1019.08 1019.16 1019.28 1019.20 1019.20 1019.84 1020.08 1019.92 1019.40 1019.48 1019.84 1020.28 1020.56 1020.84 1021.00
1013.72 1013.96 1013.80 1013.92 1014.20 1014.68 1015.16 1015.80 1015.96 1015.64 1015.92 1016.08 1016.04 1016.16 1016.16 1016.12 1016.08 1016.52 1016.72 1016.76 1016.68 1016.76 1017.08 1017.20 1017.32 1017.32 1017.44 1017.64 1017.76 1017.80 1018.04 1017.96 1018.08 1017.92 1018.08 1018.24 1018.04 1018.20 1018.28 1018.20 1018.08 1018.04 1018.16 1018.28 1018.72 1018.92 1019.12 1019.20 1019.16 1019.20 1019.20 1019.52 1020.64 1020.32 1019.60 1019.56 1019.60 1020.00 1020.32 1020.68 1020.92 1021.08
1013.12 1013.32 1013.84 1014.12 1014.16 1014.44 1015.04 1015.80 1015.88 1015.72 1015.68 1016.00 1015.96 1016.08 1016.28 1016.16 1016.32 1016.48 1016.72 1016.72 1016.84 1016.88 1017.08 1017.24 1017.40 1017.52 1017.56 1017.68 1017.92 1018.08 1018.28 1018.08 1018.12 1018.00 1018.04 1018.12 1017.92 1017.96 1018.00 1018.08 1018.04 1018.16 1018.16 1018.16 1018.60 1018.80 1019.00 1019.44 1019.44 1019.08 1019.48 1019.72 1020.56 1020.60 1019.56 1019.64 1019.68 1020.00 1020.48 1020.76 1020.96 1021.12
1013.08 1013.44 1014.20 1014.52 1014.12 1014.16 1014.80 1015.20 1015.40 1015.72 1016.04 1016.04 1016.04 1016.20 1016.44 1016.48 1016.52 1016.60 1016.72 1016.84 1016.92 1016.96 1017.00 1017.20 1017.40 1017.56 1017.64 1017.80 1017.96 1018.00 1017.80 1017.80 1017.96 1017.96 1017.96 1018.00 1018.00 1017.88 1017.96 1017.92 1017.92 1017.92 1018.04 1018.40 1018.76 1018.92 1018.92 1019.20 1019.48 1019.48 1019.64 1020.16 1020.16 1020.92 1020.24 1020.04 1020.00 1020.16 1020.56 1020.80 1020.92 1021.12
1013.04 1013.88 1014.28 1014.52 1014.12 1013.76 1014.52 1015.08 1015.36 1015.56 1015.80 1015.92 1016.08 1016.24 1016.52 1016.60 1016.64 1016.64 1016.64 1016.80 1016.92 1017.04 1017.08 1017.28 1017.32 1017.40 1017.68 1017.88 1017.88 1017.80 1017.76 1017.80 1017.84 1017.96 1018.00 1018.08 1018.12 1018.08 1018.12 1018.16 1018.12 1018.08 1018.28 1018.76 1018.92 1019.12 1019.08 1019.48 1019.92 1019.96 1019.92 1020.24 1020.40 1020.88 1020.52 1020.48 1020.16 1020.32 1020.60 1020.72 1020.88 1021.04
1013.08 1013.80 1014.08 1014.16 1013.84 1013.80 1014.64 1014.76 1015.08 1015.44 1015.92 1016.12 1016.20 1016.40 1016.44 1016.52 1016.56 1016.56 1016.64 1016.80 1016.96 1017.00 1017.16 1017.40 1017.48 1017.64 1017.68 1017.92 1017.76 1017.96 1017.92 1017.84 1017.88 1018.00 1018.12 1018.12 1018.24 1018.20 1018.36 1018.40 1018.44 1018.44 1019.04 1019.08 1019.24 1019.20 1019.56 1020.60 1019.96 1019.56 1019.72 1020.56 1021.24 1021.20 1021.16 1020.84 1020.40 1020.64 1020.80 1020.92 1021.00 1021.12
1012.56 1013.24 1013.72 1013.88 1013.92 1014.12 1014.52 1014.72 1015.12 1015.60 1015.72 1015.76 1015.96 1016.20 1016.24 1016.32 1016.44 1016.52 1016.60 1016.84 1016.88 1017.00 1017.16 1017.52 1017.60 1017.68 1017.72 1017.68 1017.72 1017.92 1017.96 1017.96 1017.96 1018.04 1018.16 1018.16 1018.32 1018.40 1018.44 1018.52 1018.52 1018.96 1019.24 1019.20 1019.40 1019.28 1019.40 1019.80 1019.64 1019.96 1020.16 1020.96 1020.80 1020.76 1021.20 1021.20 1020.76 1020.84 1020.96 1021.16 1021.28 1021.40
1012.72 1013.32 1013.76 1013.76 1013.84 1014.08 1014.32 1014.64 1015.04 1015.56 1016.12 1015.96 1015.48 1015.92 1016.00 1016.24 1016.44 1016.52 1016.68 1016.96 1017.04 1017.04 1017.20 1017.28 1017.44 1017.52 1017.68 1017.64 1017.68 1017.84 1017.96 1018.00 1018.16 1018.16 1018.20 1018.24 1018.40 1018.76 1018.80 1018.80 1018.76 1018.88 1019.48 1019.56 1019.56 1019.60 1019.56 1019.76 1019.92 1020.08 1020.28 1021.32 1021.28 1020.88 1021.32 1021.48 1021.12 1021.00 1021.00 1021.08 1021.24 1021.40
1012.84 1013.20 1013.52 1013.76 1013.80 1013.96 1014.20 1014.64 1015.08 1015.64 1016.04 1015.88 1015.52 1015.92 1016.20 1016.32 1016.48 1016.60 1016.72 1016.84 1016.96 1017.24 1017.28 1017.40 1017.52 1017.60 1017.68 1017.68 1017.64 1017.92 1018.00 1017.96 1018.08 1018.24 1018.24 1018.44 1018.52 1018.60 1018.88 1019.04 1018.96 1018.96 1019.24 1019.76 1019.72 1020.00 1020.60 1020.12 1020.32 1021.04 1021.44 1021.56 1021.44 1021.28 1021.56 1021.28 1021.12 1021.04 1021.12 1021.24 1021.32 1021.40
1012.48 1012.80 1013.08 1013.40 1013.64 1013.96 1014.20 1014.60 1014.92 1015.32 1015.92 1015.84 1015.88 1015.96 1016.12 1016.28 1016.56 1016.60 1016.72 1016.84 1016.88 1017.12 1017.28 1017.40 1017.56 1017.72 1018.08 1018.48 1018.12 1017.72 1017.68 1017.80 1017.96 1018.16 1018.40 1018.60 1018.84 1018.72 1018.88 1019.08 1019.16 1019.20 1019.40 1019.64 1019.84 1020.36 1020.88 1020.52 1020.40 1020.80 1021.08 1021.84 1021.64 1021.24 1021.36 1021.20 1021.00 1021.12 1021.24 1021.40 1021.48 1021.52
1012.44 1012.76 1013.00 1013.20 1013.60 1013.88 1014.20 1014.52 1014.84 1015.24 1015.96 1016.24 1016.44 1016.32 1016.20 1016.48 1016.64 1016.64 1016.80 1016.88 1016.92 1017.00 1017.12 1017.24 1017.44 1017.52 1017.92 1018.44 1018.36 1017.60 1017.64 1017.76 1017.88 1018.20 1018.44 1018.72 1019.20 1019.08 1018.96 1019.32 1019.56 1019.80 1019.68 1019.56 1019.92 1020.72 1020.60 1020.52 1020.76 1020.80 1021.32 1021.68 1021.24 1021.32 1021.40 1021.24 1021.20 1021.40 1021.36 1021.44 1021.56 1021.60
1012.36 1012.56 1012.88 1013.20 1013.56 1014.04 1014.32 1014.68 1014.96 1015.12 1015.76 1016.24 1016.60 1016.84 1016.64 1016.44 1016.68 1016.64 1016.80 1017.04 1016.92 1017.00 1017.00 1017.04 1017.24 1017.40 1017.64 1018.36 1017.92 1017.64 1017.68 1017.68 1017.92 1018.24 1018.68 1019.00 1019.36 1019.28 1019.40 1020.04 1020.24 1019.88 1019.84 1019.76 1019.92 1020.28 1020.52 1020.80 1021.12 1021.24 1021.52 1021.52 1021.52 1021.56 1021.56 1021.44 1021.40 1021.52 1021.56 1021.56 1021.68 1021.72
1012.24 1012.44 1012.76 1013.28 1013.60 1013.84 1014.24 1014.52 1014.72 1015.00 1015.52 1015.92 1016.04 1016.44 1016.80 1016.68 1016.56 1016.60 1016.68 1017.00 1017.04 1016.96 1016.88 1016.92 1017.16 1017.40 1017.64 1017.88 1017.64 1017.64 1017.64 1017.76 1017.96 1018.32 1018.64 1018.92 1019.16 1019.24 1019.52 1020.00 1019.68 1019.60 1019.80 1020.00 1020.28 1020.40 1020.68 1020.64 1021.16 1021.72 1021.72 1021.88 1021.88 1021.68 1021.60 1021.48 1021.56 1021.56 1021.72 1021.88 1021.84 1022.04
1012.00 1012.32 1012.56 1012.88 1013.24 1013.48 1013.60 1014.00 1014.48 1014.76 1014.92 1015.32 1015.68 1016.12 1016.68 1017.00 1016.76 1016.64 1016.80 1016.96 1016.88 1016.80 1016.92 1017.04 1017.12 1017.20 1017.24 1017.36 1017.64 1017.68 1017.68 1017.88 1018.04 1018.32 1018.60 1018.88 1019.12 1019.28 1019.52 1019.72 1019.64 1019.84 1019.64 1019.84 1020.12 1020.44 1020.60 1020.64 1021.36 1021.76 1022.32 1022.60 1022.52 1022.24 1021.96 1021.76 1021.80 1021.88 1021.96 1022.04 1022.16 1022.24
1011.84 1012.16 1012.40 1012.56 1012.96 1013.32 1013.36 1013.52 1014.00 1014.56 1014.68 1015.00 1014.76 1015.20 1015.72 1016.12 1016.48 1016.68 1016.68 1016.72 1016.48 1016.36 1016.68 1017.04 1017.08 1017.04 1017.08 1017.24 1017.44 1017.56 1017.64 1017.76 1017.88 1018.12 1018.52 1019.12 1019.48 1019.68 1019.44 1019.68 1019.84 1019.92 1020.16 1019.84 1020.08 1020.52 1020.48 1020.36 1021.12 1021.20 1021.52 1022.28 1023.08 1023.28 1022.80 1022.40 1022.32 1022.16 1021.96 1022.04 1022.16 1022.20
1011.76 1012.00 1012.20 1012.48 1012.80 1012.96 1013.16 1013.40 1013.64 1014.04 1014.36 1014.52 1015.12 1015.32 1015.60 1015.84 1016.24 1016.40 1016.60 1016.60 1016.64 1016.32 1016.32 1016.64 1016.72 1016.68 1016.80 1017.00 1017.24 1017.52 1017.52 1017.60 1017.76 1017.84 1018.28 1018.76 1019.36 1019.72 1019.56 1019.60 1019.68 1019.88 1019.96 1020.48 1020.44 1020.92 1020.52 1020.48 1020.52 1020.96 1022.28 1022.08 1022.40 1022.52 1023.64 1023.20 1022.76 1022.48 1022.16 1022.28 1022.76 1022.28
1011.68 1011.92 1012.08 1012.40 1012.76 1012.96 1013.32 1013.72 1013.92 1014.16 1014.44 1014.80 1015.00 1015.36 1015.76 1016.16 1016.24 1016.28 1016.48 1016.60 1016.64 1016.44 1016.36 1016.40 1016.36 1016.40 1016.64 1016.92 1017.16 1017.28 1017.36 1017.48 1017.60 1017.68 1017.92 1018.44 1019.24 1019.92 1020.16 1019.68 1019.96 1019.84 1019.96 1020.04 1020.28 1020.52 1020.64 1020.40 1020.36 1020.44 1020.92 1021.76 1022.48 1022.80 1022.72 1022.68 1022.56 1022.76 1022.44 1022.76 1022.96 1022.44
1011.60 1011.80 1012.00 1012.32 1012.60 1012.92 1013.36 1013.76 1014.24 1014.60 1015.00 1015.16 1015.56 1015.68 1015.92 1016.08 1016.32 1016.60 1016.60 1016.48 1016.52 1016.52 1016.44 1016.40 1016.40 1016.44 1016.52 1016.80 1017.00 1017.08 1017.20 1017.36 1017.48 1017.56 1017.80 1018.20 1018.72 1019.52 1020.24 1020.28 1019.88 1019.84 1019.76 1019.68 1020.04 1020.36 1020.68 1020.48 1020.36 1020.40 1020.52 1020.72 1020.96 1021.68 1022.24 1022.32 1022.36 1023.76 1022.56 1022.60 1023.00 1022.96
1011.52 1011.76 1011.88 1012.12 1012.44 1012.76 1013.20 1013.48 1013.80 1014.04 1014.32 1014.76 1015.20 1015.32 1015.24 1015.48 1015.92 1016.20 1016.36 1016.64 1016.64 1016.48 1016.36 1016.44 1016.48 1016.48 1016.64 1016.80 1016.92 1016.96 1017.08 1017.16 1017.24 1017.44 1017.60 1017.96 1018.52 1019.12 1019.52 1019.84 1019.72 1020.00 1019.84 1019.68 1019.96 1020.56 1020.68 1020.76 1020.56 1020.64 1020.60 1020.64 1020.72 1020.76 1020.76 1021.68 1022.56 1022.68 1023.56 1022.96 1022.72 1023.04
1011.44 1011.72 1011.88 1011.96 1012.32 1012.52 1012.96 1013.28 1013.52 1013.76 1014.08 1014.44 1014.80 1015.12 1015.32 1015.56 1015.84 1016.08 1016.40 1016.52 1016.52 1016.40 1016.28 1016.24 1016.44 1016.52 1016.60 1016.68 1016.76 1016.80 1016.88 1017.04 1017.20 1017.28 1017.40 1017.72 1018.24 1018.72 1019.16 1019.24 1019.20 1019.20 1019.52 1019.88 1020.16 1020.40 1020.48 1020.48 1020.76 1020.92 1020.68 1020.88 1020.88 1020.56 1020.64 1020.72 1021.08 1021.80 1022.48 1023.36 1023.20 1022.24
1011.52 1011.72 1011.88 1012.00 1012.28 1012.48 1012.72 1013.04 1013.32 1013.52 1014.04 1014.08 1014.32 1014.80 1015.04 1015.32 1015.72 1015.92 1016.36 1016.44 1016.44 1016.40 1016.28 1016.16 1016.12 1016.28 1016.48 1016.52 1016.60 1016.72 1016.80 1016.96 1017.16 1017.24 1017.20 1017.40 1017.92 1018.24 1018.60 1019.00 1019.08 1019.36 1019.60 1019.80 1019.96 1019.88 1020.04 1020.40 1020.48 1020.80 1020.96 1021.12 1021.00 1021.08 1020.96 1021.04 1021.16 1021.16 1022.04 1022.84 1023.20 1023.04
1011.60 1011.60 1011.84 1012.00 1012.24 1012.44 1012.64 1012.88 1013.20 1013.40 1013.84 1014.24 1014.44 1014.72 1015.04 1015.60 1015.88 1015.96 1016.28 1016.40 1016.60 1016.64 1016.48 1016.28 1016.16 1016.20 1016.36 1016.44 1016.52 1016.56 1016.76 1016.88 1017.04 1017.12 1017.12 1017.64 1017.96 1018.28 1018.64 1018.84 1018.92 1019.12 1019.16 1019.48 1019.60 1019.56 1019.76 1020.12 1020.28 1020.40 1020.56 1020.92 1021.24 1021.32 1021.32 1021.48 1021.56 1021.72 1021.92 1022.08 1022.76 1023.08
1011.44 1011.40 1011.68 1011.92 1012.12 1012.44 1012.60 1012.84 1013.04 1013.24 1013.64 1014.08 1014.40 1014.80 1015.36 1015.72 1015.92 1016.24 1016.32 1016.44 1016.40 1016.56 1016.52 1016.40 1016.28 1016.24 1016.28 1016.32 1016.36 1016.44 1016.60 1016.76 1016.88 1017.04 1017.20 1017.76 1018.20 1018.24 1018.52 1018.84 1018.88 1019.04 1019.16 1019.28 1019.40 1019.52 1019.72 1020.08 1020.20 1020.24 1020.48 1020.72 1020.92 1021.00 1021.28 1021.68 1021.84 1021.76 1021.96 1022.40 1022.60 1022.60
1011.36 1011.32 1011.56 1011.80 1012.00 1012.40 1012.56 1012.84 1012.92 1013.16 1013.56 1013.84 1014.24 1014.80 1015.44 1015.56 1015.72 1016.20 1016.16 1016.28 1016.20 1016.40 1016.48 1016.20 1016.20 1016.24 1016.36 1016.60 1016.48 1016.60 1016.68 1016.76 1016.96 1017.12 1017.36 1017.72 1018.24 1018.12 1018.28 1018.72 1018.96 1018.92 1019.00 1019.16 1019.28 1019.44 1019.72 1020.04 1020.08 1020.08 1020.24 1020.36 1020.64 1020.68 1020.92 1021.28 1021.44 1021.60 1021.84 1022.24 1022.40 1022.48
1011.36 1011.20 1011.36 1011.60 1011.96 1012.32 1012.60 1012.76 1013.04 1013.32 1013.64 1013.84 1014.20 1014.52 1015.08 1015.48 1015.60 1015.88 1016.08 1016.36 1016.80 1017.16 1016.52 1016.40 1016.36 1016.40 1016.36 1016.32 1016.48 1016.72 1016.84 1017.08 1017.20 1017.24 1017.32 1017.88 1018.20 1018.36 1018.28 1018.60 1019.04 1019.04 1019.04 1019.24 1019.40 1019.56 1019.84 1019.92 1019.92 1020.12 1020.28 1020.16 1020.32 1020.52 1020.88 1020.96 1021.08 1021.48 1021.72 1021.92 1022.20 1022.32
1011.16 1011.08 1011.20 1011.52 1011.80 1012.20 1012.52 1012.72 1013.00 1013.32 1013.72 1013.88 1014.20 1014.44 1014.52 1014.84 1015.24 1015.48 1015.80 1016.08 1016.04 1016.20 1016.32 1016.28 1016.28 1016.28 1016.16 1016.20 1016.32 1016.48 1016.80 1017.08 1017.16 1017.28 1017.48 1017.68 1017.68 1017.96 1018.04 1018.24 1018.64 1018.92 1019.08 1019.20 1019.24 1019.68 1019.80 1019.76 1019.84 1019.92 1019.96 1020.16 1020.24 1020.44 1020.76 1020.88 1021.00 1021.36 1021.76 1022.08 1022.20 1022.04
1011.00 1011.00 1011.04 1011.32 1011.56 1011.96 1012.36 1012.64 1012.96 1013.32 1013.64 1013.76 1014.08 1014.28 1014.36 1014.32 1014.52 1014.84 1015.04 1015.44 1015.68 1015.80 1015.92 1015.96 1015.96 1015.92 1015.88 1016.00 1016.16 1016.36 1016.56 1016.84 1017.12 1017.36 1017.44 1017.60 1017.96 1018.00 1018.08 1018.48 1018.64 1018.92 1019.16 1019.12 1019.36 1019.72 1019.72 1019.80 1019.92 1020.00 1020.04 1020.04 1020.08 1020.32 1020.64 1020.84 1020.88 1021.16 1021.28 1021.52 1021.64 1021.60
1010.88 1010.92 1010.84 1011.04 1011.32 1011.64 1012.04 1012.44 1012.76 1013.28 1013.56 1013.64 1013.88 1014.12 1014.08 1014.04 1014.20 1014.40 1014.80 1015.16 1015.48 1015.56 1015.60 1015.72 1015.76 1015.80 1015.88 1015.92 1016.20 1016.36 1016.52 1016.72 1016.84 1017.16 1017.32 1017.52 1018.04 1018.20 1018.44 1019.04 1018.80 1019.04 1019.36 1019.32 1019.48 1020.00 1020.04 1019.88 1019.96 1020.00 1020.04 1019.96 1020.04 1020.24 1020.40 1020.64 1020.76 1020.76 1020.92 1021.04 1021.20 1021.28
1010.64 1010.84 1010.92 1010.88 1010.92 1011.24 1011.68 1012.28 1012.60 1012.96 1013.44 1013.68 1013.92 1013.96 1013.96 1014.08 1014.20 1014.36 1014.68 1014.96 1015.20 1015.36 1015.52 1015.68 1015.84 1015.84 1016.00 1015.96 1016.08 1016.20 1016.36 1016.56 1016.76 1016.92 1017.24 1017.44 1017.92 1018.44 1018.40 1018.96 1018.84 1018.84 1019.24 1019.60 1019.48 1019.64 1019.96 1020.08 1020.08 1020.04 1020.12 1020.12 1020.16 1020.20 1020.28 1020.32 1020.36 1020.52 1020.64 1020.80 1020.92 1020.96
Wind_Speed
11 11 11 10 9 9 10 13 12 13 13 13 13 12 12 13 11 11 10 11 10 6 5 6 7 7 10 7 8 11 11 11 10 10 9 6 6 7 7 6 7 7 8 8 7 5 3 4 6 7 8 9 10 5 1 9 10 7 7 6 6 6
10 11 10 8 7 8 9 11 10 9 9 10 10 10 10 8 9 6 9 7 5 4 5 1 3 7 4 7 9 11 11 10 9 9 9 7 6 7 7 6 6 8 9 8 8 3 2 5 7 8 9 10 7 5 3 8 8 9 9 6 5 6
11 11 11 9 8 8 10 8 10 9 8 10 9 8 7 7 7 8 7 6 5 3 5 3 3 1 5 7 8 10 10 10 9 9 8 7 6 7 7 6 6 7 8 10 6 3 3 3 4 8 8 6 3 5 6 9 8 8 8 7 5 8
13 11 11 8 8 7 7 7 7 7 7 6 7 7 7 7 7 7 5 6 5 5 5 3 8 10 10 6 6 9 11 10 9 7 8 5 4 4 6 5 6 6 5 5 4 3 3 3 3 2 4 3 5 2 4 7 8 7 7 8 7 10
10 11 8 5 6 7 7 5 6 7 6 5 6 4 4 5 5 4 7 6 5 5 4 4 4 5 4 5 5 5 5 5 4 3 6 3 2 3 3 4 3 4 5 5 4 2 1 1 1 2 4 4 0 1 5 9 8 7 7 7 6 10
7 5 4 5 5 5 8 4 6 6 6 6 4 6 6 4 5 5 5 6 5 6 5 4 4 4 3 5 5 5 4 4 4 4 5 2 3 3 3 4 5 5 4 4 2 2 1 1 2 2 4 3 2 3 3 7 8 8 7 6 6 10
7 5 8 8 5 2 4 5 3 5 4 3 5 6 4 3 5 5 5 5 6 6 5 4 4 4 3 3 4 5 5 5 5 4 5 4 4 3 4 4 3 4 4 4 5 3 2 1 1 2 4 7 3 3 5 7 8 8 6 6 6 9
7 5 8 8 4 4 5 5 4 6 5 3 4 6 3 2 4 6 4 3 4 6 5 5 4 5 4 2 1 1 2 5 5 3 4 6 6 4 5 4 4 5 5 4 4 2 2 2 1 1 2 5 6 5 1 5 6 9 7 6 5 7
8 9 10 4 1 2 4 4 5 5 5 1 5 5 5 3 3 6 4 3 3 5 5 5 5 4 3 2 1 0 2 2 5 5 5 5 4 5 6 5 5 5 4 2 4 2 2 2 2 1 1 3 2 7 4 2 6 9 8 6 5 5
8 6 9 9 5 4 3 5 2 4 6 4 3 7 6 3 1 5 4 3 3 3 5 5 4 3 3 3 1 1 2 4 2 3 4 3 2 5 5 3 4 3 4 3 5 3 3 2 2 2 1 4 3 7 7 1 5 8 8 7 5 5
6 7 8 8 6 6 5 5 4 4 5 5 4 6 6 3 2 3 5 4 4 3 4 4 4 3 3 3 3 3 5 5 5 2 3 3 3 4 4 4 2 3 4 4 6 4 3 2 1 3 1 3 5 3 5 3 5 7 8 7 6 5
6 6 11 9 5 7 8 5 4 5 6 5 4 5 5 5 4 4 6 5 4 4 4 4 4 4 3 3 4 5 4 3 2 3 2 1 1 1 2 3 5 3 1 8 6 5 3 3 2 1 4 6 4 5 2 5 5 7 7 7 6 5
6 7 11 10 5 6 9 8 5 6 6 5 5 5 6 5 5 5 5 5 4 4 3 3 4 5 3 5 5 2 0 2 2 1 0 1 1 2 2 2 2 3 4 5 6 5 3 3 0 1 3 6 6 2 6 2 5 6 5 5 6 5
5 9 11 11 8 5 9 7 7 5 5 6 4 4 4 4 5 5 5 4 4 4 3 2 2 3 5 3 3 2 4 2 2 2 2 1 2 3 1 1 1 1 6 3 2 2 6 1 2 3 7 5 9 3 2 2 5 6 5 6 4 4
7 10 10 11 10 5 6 6 7 6 4 3 6 6 5 5 4 4 4 4 5 4 2 2 3 5 4 4 4 5 2 1 2 2 2 1 2 3 1 2 2 5 4 4 2 2 3 5 3 8 7 7 7 6 4 6 3 4 6 6 5 4
8 9 9 9 8 7 7 6 7 8 5 3 2 6 6 5 5 5 4 4 4 5 5 3 3 4 2 3 4 4 2 1 1 2 1 2 2 1 3 3 3 4 5 3 4 0 4 3 7 6 6 5 4 7 3 1 2 5 4 4 4 5
8 8 9 9 9 8 6 6 7 6 7 7 6 5 6 5 5 5 6 5 5 4 4 3 2 3 1 2 3 4 3 2 1 1 2 1 1 2 2 2 3 4 4 2 3 6 3 4 6 8 5 3 2 5 4 1 4 5 4 5 3 4
7 7 6 8 7 7 7 7 6 7 6 5 5 4 5 5 5 4 5 5 5 4 3 2 1 3 3 4 4 2 4 3 3 2 2 1 3 3 3 1 3 4 2 3 3 5 6 1 6 5 5 4 2 6 3 2 2 4 4 4 3 2
6 7 6 7 8 6 7 6 5 7 8 6 4 1 5 4 4 3 5 6 5 4 4 4 2 3 2 2 8 2 2 3 2 3 3 0 4 1 1 2 4 3 0 3 5 8 5 3 5 4 5 2 4 5 2 2 4 4 3 3 4 3
6 7 7 6 7 7 6 6 6 6 5 6 9 6 4 4 4 4 5 4 5 5 5 4 4 4 5 9 5 3 3 4 3 3 4 2 4 2 2 2 4 2 4 3 7 6 5 6 5 5 4 5 4 4 4 3 3 3 3 3 3 3
8 8 6 7 6 6 8 7 6 7 8 6 7 7 9 5 3 4 5 7 5 6 6 6 5 5 7 6 2 0 1 2 3 2 3 3 6 3 3 2 2 1 4 5 5 5 5 6 7 6 5 4 5 3 3 3 2 2 3 4 3 2
9 8 7 7 7 6 5 5 6 5 5 7 8 8 7 8 7 4 4 4 8 7 7 6 5 5 5 4 3 2 2 2 3 3 3 3 6 3 2 2 3 3 2 2 3 5 5 6 3 6 6 3 3 3 2 2 2 1 1 2 3 2
8 7 7 6 6 6 4 4 5 4 4 4 5 5 7 8 8 8 8 8 6 7 8 7 7 6 4 4 4 3 3 2 2 4 3 4 6 5 4 4 5 4 4 1 2 2 4 2 4 5 6 6 4 3 0 1 1 1 2 2 1 4
9 7 7 6 6 5 5 4 6 5 4 4 6 6 7 7 7 7 7 8 8 7 7 7 7 7 5 5 4 4 3 3 3 2 4 4 7 7 4 3 3 4 6 5 4 3 4 3 2 7 5 1 5 4 4 1 2 1 1 1 6 2
10 9 7 7 7 7 7 6 5 6 6 7 6 5 6 6 6 6 6 6 7 6 5 4 4 5 5 5 5 4 3 3 2 3 3 4 7 7 5 3 3 4 6 5 5 3 2 0 2 4 1 4 3 2 2 4 3 1 1 2 4 2
9 8 8 9 9 8 8 8 7 7 7 6 6 5 6 8 8 6 6 3 3 5 6 5 2 2 4 4 4 3 3 3 3 2 2 2 6 7 8 4 6 4 5 3 4 4 3 1 0 2 3 2 0 1 6 6 5 3 1 2 7 5
9 8 8 9 11 8 8 8 9 8 6 7 7 5 4 4 5 4 3 3 4 4 5 5 3 4 3 4 3 4 4 3 3 5 4 4 6 8 8 9 7 6 5 4 4 5 5 5 2 2 0 2 0 2 3 6 3 5 4 0 4 10
8 9 8 8 11 8 8 8 8 6 7 6 6 6 6 5 4 4 4 3 2 1 3 4 4 5 4 5 4 3 3 3 2 2 5 5 5 7 7 7 6 6 5 6 1 4 6 6 6 2 0 1 1 1 4 3 5 4 5 7 4 2
10 9 8 9 9 8 7 8 7 6 7 5 6 6 6 5 4 3 4 2 1 1 3 3 4 5 5 5 4 4 4 3 3 3 3 3 5 5 7 7 6 5 5 7 7 5 5 6 5 4 4 1 2 3 3 4 4 3 4 6 5 5
11 9 9 10 9 9 8 7 7 7 8 6 5 6 6 5 5 4 4 3 2 2 2 3 2 3 5 7 6 4 3 4 4 3 2 3 6 3 6 5 4 4 6 5 4 3 6 6 4 4 3 3 2 2 3 2 2 3 4 2 5 6
10 9 11 10 10 10 8 7 7 7 8 8 8 8 7 6 5 4 5 3 3 2 3 4 3 2 2 3 4 3 3 3 3 2 1 6 3 6 6 7 6 3 4 6 5 4 4 5 3 4 5 4 3 3 2 2 3 2 2 2 2 5
11 10 11 11 9 9 7 8 6 7 8 7 8 8 8 8 7 7 5 4 2 2 6 4 4 2 3 4 1 2 2 1 2 1 1 4 6 3 4 7 6 5 5 5 5 4 4 4 3 2 4 4 4 3 4 5 3 4 5 3 2 4
11 10 11 11 10 10 7 8 7 7 6 6 6 8 12 10 9 6 5 5 7 9 5 4 3 4 3 3 4 2 3 3 0 1 1 6 5 5 2 6 7 5 4 5 6 6 6 5 5 4 4 3 5 4 5 3 5 4 2 2 3 4
12 10 10 11 10 10 8 8 7 6 6 6 6 4 4 9 11 9 8 7 5 6 5 4 5 3 3 4 3 3 5 2 1 1 1 1 1 4 5 3 7 7 6 2 4 5 6 6 5 5 4 4 4 5 5 5 4 4 4 4 3 3
12 12 12 12 11 11 9 8 7 6 6 5 5 4 4 6 6 7 8 7 6 5 4 4 4 3 4 3 4 4 3 5 4 4 3 5 3 3 5 1 3 7 6 4 4 4 4 5 5 5 5 4 5 6 6 4 4 4 5 6 3 3
11 11 12 13 12 11 10 8 7 9 6 5 5 5 4 5 4 6 6 6 6 5 4 4 3 3 3 3 3 4 4 3 4 4 0 3 7 5 5 4 3 5 7 4 2 5 2 3 2 3 3 3 3 5 6 6 5 5 5 5 3 5
11 10 10 12 13 12 10 9 7 8 6 6 7 5 5 6 5 5 5 4 4 5 5 4 4 2 2 2 2 3 4 6 3 4 5 1 5 4 5 4 5 5 6 7 2 2 6 4 2 2 2 3 3 4 5 5 5 4 3 3 3 5
Wind_Direction
165 157 160 153 151 149 143 138 136 133 134 139 144 145 141 143 139 149 147 148 156 152 151 141 145 142 137 135 126 127 133 132 135 132 130 136 134 120 110 118 135 138 136 135 142 176 226 266 279 293 292 297 305 320 263 90 88 94 93 92 92 93
163 161 156 151 146 145 148 151 146 141 142 142 143 139 143 153 154 147 145 140 147 143 109 248 143 141 137 127 129 135 136 135 135 138 145 147 138 123 121 129 147 153 146 143 154 174 211 250 264 277 286 292 294 285 114 102 101 96 98 93 96 108
161 160 154 147 144 140 151 159 152 152 147 152 155 154 157 158 158 155 159 143 79 98 115 119 81 146 137 133 129 136 135 141 148 150 149 149 142 125 126 148 160 166 157 162 172 195 208 191 223 242 263 277 264 244 108 104 103 99 97 99 94 112
165 156 159 148 138 141 152 160 154 153 150 155 161 161 159 169 161 165 139 100 116 107 109 85 138 174 137 128 131 137 144 149 157 162 156 148 143 133 136 157 169 164 172 190 222 185 197 206 207 189 235 259 239 123 114 104 103 109 111 111 112 120
161 153 149 122 120 143 147 159 153 149 154 157 162 164 137 79 52 86 99 112 118 115 110 124 108 115 123 132 140 146 151 155 154 171 185 175 168 164 180 182 179 187 197 213 217 190 9 236 18 350 311 244 187 79 68 94 101 100 90 92 116 123
134 97 87 83 118 138 150 139 155 147 153 163 129 71 79 86 87 92 100 106 110 118 113 109 113 124 149 150 148 153 168 159 170 183 197 201 189 163 206 218 175 188 206 204 179 211 119 10 34 342 298 303 229 113 104 87 87 88 99 104 109 117
14 30 56 58 28 8 61 64 50 92 94 58 82 91 84 105 122 111 121 125 137 127 125 123 140 150 178 174 153 166 177 168 184 193 177 227 179 164 209 212 213 192 195 194 176 171 115 112 19 21 320 313 22 35 90 101 108 109 111 112 116 114
76 23 59 67 356 17 54 68 68 79 92 98 96 90 100 161 132 120 126 145 146 131 130 151 152 166 179 154 132 176 210 182 161 167 204 215 170 164 213 208 204 219 198 183 175 131 90 55 36 34 342 337 33 316 38 109 110 114 108 109 117 113
89 95 95 103 71 45 51 78 37 91 103 122 100 120 156 182 147 107 145 165 161 135 141 157 162 172 156 146 93 43 300 284 163 189 204 251 154 175 210 217 196 214 167 173 142 124 116 88 62 316 181 41 33 268 67 45 107 109 108 109 118 118
104 124 128 139 156 108 79 56 90 136 121 161 154 136 133 161 106 117 141 179 164 140 139 153 147 153 128 152 94 94 289 276 289 201 164 224 222 174 199 234 221 213 181 177 152 147 138 145 158 200 328 62 12 287 93 352 95 104 106 104 113 119
129 146 122 122 153 148 121 123 177 138 125 124 118 118 136 176 155 137 147 167 157 147 134 136 137 143 143 164 151 205 217 222 200 183 193 226 222 180 176 211 240 206 214 207 142 136 121 99 359 321 290 140 157 294 97 80 99 105 112 121 123 121
152 127 111 116 172 163 123 133 141 112 107 114 120 119 133 159 164 154 152 164 161 149 149 136 139 165 186 167 199 220 211 180 183 189 211 195 278 29 272 176 225 223 60 56 67 84 71 114 175 270 231 92 63 348 100 116 88 101 116 129 126 114
159 115 109 130 179 175 127 141 169 135 127 137 136 124 134 150 160 158 155 163 157 152 165 147 177 171 161 188 216 220 14 239 160 111 41 236 222 197 251 9 351 342 78 107 111 110 99 39 338 212 102 86 85 53 348 340 107 103 105 108 116 132
161 118 130 145 180 176 124 152 138 121 126 144 148 129 134 149 164 166 153 135 144 148 178 128 196 172 187 192 141 129 229 194 155 143 201 197 141 240 108 339 282 339 48 79 98 119 93 232 209 59 59 72 86 21 33 288 85 94 96 67 38 80
174 133 137 146 162 165 142 146 125 123 100 145 154 145 158 141 157 146 124 130 142 138 148 145 208 187 194 165 167 194 191 210 118 183 192 134 52 4 338 226 25 82 111 84 42 20 144 157 91 52 30 38 68 92 34 340 91 97 99 114 114 93
164 144 142 149 151 155 146 134 128 122 114 85 238 136 144 146 156 142 139 131 154 157 158 200 223 183 187 192 190 146 171 103 115 293 54 51 65 59 20 40 52 80 106 120 115 75 32 52 75 84 57 46 75 96 106 226 102 99 93 106 120 114
159 147 142 155 145 143 142 131 127 142 133 167 189 128 129 141 149 150 152 157 156 136 119 167 323 338 356 289 154 148 187 148 184 184 95 32 347 108 101 55 51 65 107 131 119 101 50 56 73 65 60 72 89 104 121 147 99 108 103 100 107 110
150 152 146 147 141 137 146 141 139 133 125 153 157 140 141 148 153 150 153 152 140 128 135 137 37 50 96 279 274 182 154 168 183 113 69 67 35 33 79 53 92 48 68 122 103 86 73 359 69 75 94 114 184 101 111 158 116 80 97 98 90 85
147 150 152 143 132 129 133 131 131 135 153 154 131 146 164 154 156 162 152 142 144 146 152 150 136 123 108 227 244 173 163 177 156 111 111 79 79 58 45 28 32 106 32 65 75 90 148 105 87 102 102 134 86 82 77 37 73 110 94 96 91 76
155 155 150 147 139 142 148 156 146 139 121 151 142 164 192 191 145 169 151 157 145 143 152 176 176 166 164 222 220 196 184 189 130 122 135 119 108 88 34 130 177 165 111 87 82 127 107 99 103 100 87 71 69 86 77 58 57 82 94 79 86 79
157 158 154 155 150 163 169 160 153 159 162 151 154 156 143 182 169 177 169 157 141 158 163 179 177 186 190 205 154 220 73 71 103 110 99 126 113 129 140 224 96 8 98 112 105 104 129 145 117 82 71 74 65 50 70 73 54 40 55 60 82 87
154 161 169 160 160 180 170 162 157 147 144 149 155 150 148 156 184 188 164 171 158 185 174 178 198 207 204 171 167 175 164 143 125 117 123 78 98 68 278 157 110 78 15 96 148 124 155 140 116 133 140 106 68 48 42 46 65 5 42 145 132 102
158 165 161 160 158 172 165 154 127 144 169 154 134 138 144 145 159 168 168 157 175 181 174 181 198 199 190 177 172 169 166 170 155 136 113 110 115 156 240 193 132 128 107 320 89 85 187 251 129 140 120 120 142 123 123 73 83 141 256 85 98 110
151 159 158 162 159 154 136 130 126 135 124 100 108 105 123 134 145 150 157 158 178 194 184 178 191 189 175 180 166 179 176 180 173 155 150 135 114 155 233 277 106 143 147 161 169 151 224 260 181 138 147 175 154 128 121 221 154 172 101 94 61 189
152 159 158 149 139 144 131 117 113 113 104 109 110 115 127 140 154 161 155 177 179 188 188 200 205 178 168 159 175 177 172 178 181 171 161 146 134 149 174 262 215 174 168 188 157 124 149 325 112 39 93 130 119 185 159 145 136 29 101 112 136 203
154 155 159 154 144 147 149 141 147 150 155 151 142 154 168 162 161 169 180 162 170 184 191 194 170 179 161 162 175 191 178 185 178 154 137 150 121 107 116 208 219 135 193 215 137 122 129 298 53 61 32 67 25 153 143 159 166 146 126 118 142 193
152 154 153 157 149 157 156 154 159 162 163 158 151 165 147 146 150 149 141 171 194 195 198 180 178 187 169 178 183 197 191 194 189 165 182 137 109 127 149 184 196 175 197 150 141 139 152 165 127 62 357 12 9 259 149 159 152 127 122 98 149 170
149 149 152 156 155 163 159 158 162 162 154 158 155 146 143 150 137 137 147 175 207 198 215 205 185 185 189 193 189 191 182 191 165 197 183 155 141 143 154 160 178 167 147 101 51 158 157 159 165 150 231 161 301 58 79 60 131 151 135 140 147 130
147 149 150 154 158 174 162 160 162 158 148 147 135 127 133 133 129 113 125 128 123 280 247 239 203 171 184 193 189 189 190 185 172 219 188 160 113 138 145 142 138 116 136 139 171 196 155 156 154 154 153 136 77 62 82 78 64 74 130 137 134 142
155 153 158 159 167 168 162 161 164 156 145 133 122 116 117 120 121 133 132 184 117 291 259 241 236 225 176 192 186 188 185 181 197 204 167 117 110 152 121 128 115 126 138 148 151 159 151 142 135 155 146 134 136 112 71 74 73 84 54 41 148 149
162 163 157 161 168 167 158 162 164 155 151 142 133 122 115 130 144 154 160 185 145 201 262 227 208 209 121 258 173 196 166 181 169 177 194 95 117 144 139 130 139 166 142 148 145 138 135 122 144 150 125 136 132 148 139 132 155 119 112 116 91 147
164 159 156 160 164 162 159 164 152 148 147 141 140 137 141 155 170 176 148 155 143 292 241 204 180 166 166 184 166 120 179 158 158 127 121 105 138 186 151 137 141 167 149 123 130 140 130 140 163 138 119 123 123 120 96 114 131 121 127 134 172 142
168 158 158 157 157 157 163 157 148 149 130 131 132 137 159 169 167 161 152 169 166 193 201 175 172 158 200 148 123 129 75 104 310 78 97 121 134 145 174 124 151 152 134 146 151 148 147 168 161 148 141 139 136 137 126 125 129 132 140 154 248 174
167 158 159 153 158 156 161 150 144 142 129 140 139 149 156 150 154 164 162 182 180 163 165 174 164 166 155 151 146 144 142 129 150 247 155 108 110 129 131 161 138 143 127 146 151 141 146 163 155 148 149 145 167 127 132 150 152 150 166 167 224 225
162 169 162 157 157 155 156 150 144 134 140 148 138 149 184 164 152 150 147 154 146 163 147 157 150 147 166 153 135 140 141 148 150 179 188 150 119 121 124 19 125 118 135 179 155 122 155 158 151 152 156 161 156 128 141 164 175 184 183 182 202 243
169 172 167 156 158 155 154 147 151 139 157 148 140 182 167 117 116 119 130 143 156 159 158 137 117 139 140 140 144 137 155 152 146 153 144 136 141 169 137 145 172 138 143 148 147 128 136 160 151 157 143 131 140 151 156 168 198 183 183 177 208 269
172 177 170 164 159 153 146 144 149 139 152 160 172 172 136 128 132 129 131 134 130 110 97 98 114 120 127 129 166 170 174 138 135 131 127 80 91 142 119 176 153 134 127 114 90 198 143 168 170 161 138 159 172 167 168 187 183 156 160 150 207 254